This is the latest recevied weather packets stored in our database for station/object N8ESC. If no packets are shown the sender has not sent any weather packets the latest 1 day(s).
| Time | Temp. | Humidity | Pressure | Rain* | Wind** | Luminosity | Snow |
|---|---|---|---|---|---|---|---|
| 1778012226 | 11.11° C | 36% | 1004.9 hPa | 0 mm | 2.24 m/s, 323° | 340 W/m² | - |
| 1778011927 | 10.56° C | 35% | 1004.9 hPa | 0 mm | 2.68 m/s, 252° | 325 W/m² | - |
| 1778011622 | 11.11° C | 35% | 1004.8 hPa | 0 mm | 0.45 m/s, 268° | 228 W/m² | - |
| 1778011319 | 11.11° C | 36% | 1004.7 hPa | 0 mm | 1.79 m/s, 209° | 241 W/m² | - |
| 1778011014 | 10.56° C | 35% | 1004.8 hPa | 0 mm | 1.79 m/s, 13° | 245 W/m² | - |
| 1778010712 | 11.11° C | 36% | 1004.8 hPa | 0 mm | 2.24 m/s, 321° | 278 W/m² | - |
| 1778010409 | 11.11° C | 35% | 1004.5 hPa | 0 mm | 4.02 m/s, 256° | 268 W/m² | - |
| 1778010105 | 11.11° C | 35% | 1004.5 hPa | 0 mm | 1.79 m/s, 295° | 301 W/m² | - |
| 1778009802 | 11.11° C | 35% | 1004.6 hPa | 0 mm | 2.24 m/s, 276° | 281 W/m² | - |
| 1778009499 | 11.11° C | 35% | 1004.5 hPa | 0 mm | 4.47 m/s, 310° | 310 W/m² | - |
| 1778009198 | 11.11° C | 35% | 1004.4 hPa | 0 mm | 1.34 m/s, 247° | 622 W/m² | - |
| 1778008895 | 11.11° C | 36% | 1004.5 hPa | 0 mm | 1.79 m/s, 244° | 308 W/m² | - |
| 1778008593 | 11.11° C | 35% | 1004.5 hPa | 0 mm | 1.79 m/s, 280° | 299 W/m² | - |
| 1778008291 | 10.56° C | 36% | 1004.5 hPa | 0 mm | 4.02 m/s, 247° | 344 W/m² | - |
| 1778007986 | 11.11° C | 35% | 1004.3 hPa | 0 mm | 3.13 m/s, 247° | 290 W/m² | - |
| 1778007681 | 11.11° C | 36% | 1004.4 hPa | 0 mm | 3.58 m/s, 252° | 515 W/m² | - |
| 1778007379 | 11.11° C | 35% | 1004.3 hPa | 0 mm | 3.58 m/s, 324° | 387 W/m² | - |
| 1778007075 | 12.22° C | 34% | 1004 hPa | 0 mm | 5.36 m/s, 288° | 815 W/m² | - |
| 1778006771 | 11.11° C | 36% | 1004.4 hPa | 0 mm | 2.24 m/s, 308° | 382 W/m² | - |
| 1778006468 | 11.11° C | 35% | 1004.2 hPa | 0 mm | 1.79 m/s, 274° | 673 W/m² | - |
| 1778006165 | 11.11° C | 35% | 1004.1 hPa | 0 mm | 3.58 m/s, 247° | 403 W/m² | - |
| 1778005863 | 10.56° C | 37% | 1004.3 hPa | 0 mm | 2.24 m/s, 121° | 329 W/m² | - |
| 1778005558 | 10.56° C | 37% | 1004.2 hPa | 0 mm | 1.34 m/s, 211° | 619 W/m² | - |
| 1778005255 | 11.11° C | 36% | 1004 hPa | 0 mm | 3.58 m/s, 290° | 352 W/m² | - |
| 1778004952 | 10.56° C | 37% | 1004 hPa | 0 mm | 1.34 m/s, 234° | 366 W/m² | - |
* Rain latest hour (hover to see other rain measurements)
** Current wind speed in m/s (hover to see current wind gust speed)